{"data":{"norad_id":67127,"epoch":"2026-05-24T22:56:40.100352Z","epoch_age_seconds":78831,"freshness":"FRESH","line1":"1 67127U 25299AB  26144.95601968  .00007513  00000+0  28223-3 0  9996","line2":"2 67127  42.9990  97.9746 0000962 248.1964 111.8786 15.27584758 24786","mean_motion":15.27584758,"eccentricity":9.62e-5,"inclination_deg":42.999,"raan_deg":97.9746,"arg_perigee_deg":248.1964,"mean_anomaly_deg":111.8786,"bstar":0.00028223,"rev_number":2478,"period_min":94.26645509905,"perigee_km":482.37480418109,"apogee_km":483.69489364482,"semimajor_km":6861.171848913,"source":"CELESTRAK","updated_at":"2026-05-25T13:38:21.478423Z"}}